Location: Sewell
(39.7660°N, 75.1450°W)
Time: 03:46:11
(UTC-04:00)

ISS - Visible Passes

Search period start: 19 September 2014 00:00
Search period end: 29 September 2014 00:00
Orbit: 414 x 417 km, 51.6° (Epoch: 19 September)

Date Brightness Start Highest point End Pass type
(mag) Time Alt. Az. Time Alt. Az. Time Alt. Az.
19 Sep -0.1 04:09:17 14° NE 04:09:17 14° NE 04:09:53 10° NE visible
19 Sep -0.7 05:42:38 10° NW 05:44:12 13° NNW 05:45:47 10° NNE visible
20 Sep -0.9 04:55:19 15° NNW 04:55:19 15° NNW 04:57:11 10° NNE visible
21 Sep 0.1 04:08:25 11° NNE 04:08:25 11° NNE 04:08:34 10° NNE visible
21 Sep -0.5 05:42:53 10° NNW 05:43:47 11° N 05:44:42 10° NNE visible
22 Sep -0.5 04:54:22 11° N 04:54:35 12° N 04:55:47 10° NNE visible
23 Sep -0.5 05:41:55 10° NNW 05:43:14 12° N 05:44:33 10° NNE visible
24 Sep -0.4 04:53:20 11° N 04:53:58 11° N 04:54:55 10° NNE visible
25 Sep -0.7 05:40:16 10° NNW 05:42:27 16° NNE 05:44:38 10° ENE visible
26 Sep -0.5 04:52:21 12° N 04:53:09 13° NNE 04:54:51 10° NE visible
27 Sep -1.4 05:38:28 10° NW 05:41:22 27° NNE 05:44:16 10° E visible
28 Sep -1.0 04:51:34 19° N 04:52:06 20° NNE 04:54:37 10° ENE visible
28 Sep -3.3 06:25:46 10° NW 06:29:06 73° SW 06:32:24 10° SE visible
